Wind_Speed
9 10 10 10 10 10 10 11 11 11 12 13 12 12 13 13 15 16 16 17 17 17 17 18 19 20 20 21 22 22 23 23 23 23 23 23 24 25
10 10 10 10 11 11 11 12 12 12 12 13 13 13 13 14 15 15 17 17 18 18 18 19 20 21 22 22 23 24 24 24 24 25 25 25 26 26
10 11 11 11 12 12 12 12 12 13 13 14 14 14 14 15 16 16 17 18 18 18 19 19 20 21 22 23 24 24 24 24 25 25 25 26 27 28
11 12 12 12 13 13 13 13 14 14 14 15 15 16 16 17 17 18 18 18 18 18 19 20 21 21 22 23 24 24 24 25 25 26 26 27 27 28
12 12 12 13 13 13 14 15 15 16 16 17 17 17 18 18 19 19 19 20 19 19 20 21 22 23 23 24 25 26 26 26 27 26 26 26 26 27
13 13 13 14 15 15 15 16 16 17 17 18 18 18 19 19 20 20 21 21 22 22 22 23 23 24 24 25 26 27 27 28 27 27 27 28 28 28
15 14 14 15 15 16 17 17 17 18 18 19 19 20 21 21 22 22 22 23 23 23 24 24 24 25 25 26 28 28 28 28 28 28 29 29 30 30
16 15 16 16 16 17 18 18 19 19 20 20 21 22 23 23 23 24 24 24 24 24 25 25 26 26 26 26 27 28 29 30 30 30 30 31 31 32
17 17 18 18 18 19 19 20 20 21 21 22 23 23 24 24 24 25 25 25 26 26 26 27 28 28 28 28 29 29 30 30 30 31 31 32 32 33
19 19 19 20 20 21 22 22 23 23 23 24 25 25 26 25 25 26 26 27 27 28 28 29 30 30 30 29 29 30 30 31 31 32 32 32 33 33
20 20 20 21 22 23 23 24 25 25 25 25 26 27 27 27 27 27 27 28 28 28 29 29 29 29 30 30 31 31 31 32 32 33 33 34 34 34
22 22 22 23 24 24 24 25 25 26 26 27 28 28 28 28 28 28 28 29 29 29 30 30 29 30 30 31 31 32 32 32 33 33 34 34 35 36
23 23 23 24 24 25 26 26 27 27 27 28 28 28 29 29 29 29 29 30 30 30 31 31 31 31 31 31 32 32 33 33 34 35 35 35 36 37
23 24 24 25 25 26 26 27 27 28 28 29 29 29 29 29 29 29 30 30 31 31 32 32 32 32 32 32 32 32 33 34 35 36 36 36 37 37
25 25 25 26 27 27 27 28 28 29 29 29 29 29 29 29 29 30 30 31 31 32 32 32 32 33 33 32 33 33 34 35 35 35 36 37 37 37
26 27 27 27 28 28 28 29 29 29 29 29 29 28 28 29 30 31 31 32 32 32 32 32 32 32 33 33 33 34 35 36 36 36 37 37 37 37
27 27 27 27 28 28 28 29 29 29 29 29 29 30 30 30 31 31 32 32 32 32 32 33 33 34 34 35 35 35 36 36 37 37 37 37 37 37
28 28 28 28 28 28 28 29 29 29 29 29 30 30 31 31 32 32 32 32 32 32 33 33 34 35 35 36 36 37 37 38 38 38 37 36 36 37
28 27 28 28 28 29 29 29 30 29 29 29 30 30 31 32 32 32 33 33 33 33 34 34 35 35 35 35 36 37 37 36 37 37 36 35 35 36
27 27 27 28 29 29 29 29 30 30 30 30 31 31 32 32 33 33 33 33 33 34 35 35 35 35 35 35 35 35 35 35 35 35 35 35 35 35
26 27 27 28 29 29 29 30 30 31 31 32 32 33 33 33 33 33 33 33 34 34 34 34 34 35 35 35 35 34 34 34 35 35 34 34 34 34
26 26 27 27 29 29 30 30 31 31 32 32 32 32 32 32 32 33 34 34 34 34 34 34 34 34 35 35 35 35 34 34 34 35 34 33 33 33
26 27 28 28 29 29 30 30 31 31 31 32 32 32 32 32 33 33 34 34 34 34 34 34 35 35 35 35 35 34 34 35 35 35 33 33 33 33
Wind_Direction
308 306 305 307 307 307 307 306 302 300 299 300 300 298 297 298 291 287 287 286 283 284 284 283 280 280 279 279 278 278 278 277 277 276 274 273 271 270
310 308 307 309 309 310 308 307 308 303 297 298 300 302 300 302 297 294 291 287 287 282 285 286 283 283 282 282 283 280 278 276 275 274 275 275 274 275
307 304 304 304 304 305 304 306 307 306 301 297 297 298 299 301 301 296 295 293 289 285 286 289 287 285 283 285 286 284 283 280 278 275 274 275 276 277
301 298 297 300 302 301 302 305 306 308 306 302 300 300 301 302 302 302 300 297 293 292 293 293 292 289 288 287 287 285 284 283 281 279 277 276 277 278
302 299 298 298 299 301 305 308 309 307 306 305 303 302 303 303 304 302 300 299 298 296 295 295 295 291 289 288 287 284 283 282 281 279 278 277 279 279
304 300 299 298 300 301 302 305 306 306 305 305 303 304 303 304 304 302 299 299 299 296 294 293 294 292 291 289 288 286 284 283 281 279 278 277 278 279
307 301 300 299 300 301 302 304 305 306 306 306 306 305 304 303 302 300 298 298 297 295 294 294 294 293 291 288 288 287 284 282 281 279 278 278 279 279
309 304 302 301 300 300 301 303 304 305 306 306 305 304 304 303 301 299 298 297 296 295 295 295 294 294 292 290 290 288 285 282 280 280 280 279 279 279
306 304 301 300 300 300 301 301 303 303 303 305 305 305 304 303 302 300 298 296 296 296 296 294 294 294 293 293 292 290 289 287 282 281 281 280 280 280
303 302 302 302 301 299 299 301 302 302 302 304 305 305 305 303 302 301 300 298 297 296 296 296 295 293 294 293 292 291 290 288 285 282 282 282 282 281
301 302 303 302 301 301 301 301 301 301 301 303 305 305 305 304 302 301 300 300 299 298 298 298 297 296 295 293 292 290 290 289 287 285 283 283 282 281
300 300 300 301 302 302 303 302 301 301 301 302 302 303 303 303 302 301 300 300 300 299 299 298 297 296 295 294 292 290 290 289 287 286 285 284 283 282
301 300 300 301 303 303 303 303 303 302 302 302 302 302 302 302 302 302 301 300 300 299 299 299 298 297 296 295 293 292 292 290 289 288 285 285 284 284
303 302 301 301 303 303 304 303 303 303 302 302 302 303 302 302 302 302 302 301 300 300 300 301 300 298 297 297 295 294 293 293 291 289 287 286 285 284
303 303 302 301 301 302 303 303 303 303 303 303 302 302 302 302 302 302 303 303 302 301 301 302 301 301 300 299 298 297 295 294 293 290 288 288 287 285
303 303 302 301 301 302 303 303 303 304 304 303 302 302 302 302 303 303 303 303 303 302 301 301 302 302 301 301 301 300 299 298 296 293 292 291 289 288
302 302 302 302 303 303 303 304 305 305 304 304 304 303 302 303 303 304 303 303 303 302 302 302 302 302 301 301 301 301 300 299 299 298 295 293 291 289
301 301 302 303 304 304 304 304 305 305 304 305 305 305 305 305 304 304 303 303 302 302 302 302 302 302 302 301 301 301 300 299 298 297 296 294 292 291
300 301 302 303 304 304 303 304 305 305 306 306 306 305 305 305 305 305 305 305 304 303 303 303 304 304 303 303 302 302 302 301 300 299 297 295 294 293
301 301 302 303 303 304 304 305 305 306 307 307 307 307 307 306 306 306 306 306 306 305 305 305 305 305 305 304 304 304 304 304 303 301 299 297 297 296
302 302 303 303 303 304 305 306 307 307 307 308 309 309 308 307 308 308 307 307 306 305 305 305 305 306 306 306 305 305 305 304 304 304 302 300 299 298
302 303 303 303 304 305 306 306 306 306 306 307 308 309 310 310 309 309 309 309 308 307 306 306 306 306 306 306 306 306 305 304 304 305 304 302 301 301
302 303 303 304 305 305 306 306 306 307 307 308 309 311 311 311 310 309 310 310 309 308 308 308 308 308 307 307 307 306 306 306 305 304 303 303 303 302
Height
5883 5883 5882 5881 5880 5879 5878 5877 5877 5876 5875 5874 5873 5872 5871 5870 5869 5868 5867 5866 5865 5865 5864 5863 5863 5862 5861 5860 5860 5859 5858 5857 5856 5855 5855 5854 5854 5854
5881 5880 5879 5879 5878 5877 5876 5875 5874 5873 5872 5871 5870 5869 5868 5867 5865 5863 5862 5860 5860 5859 5858 5858 5857 5856 5855 5854 5853 5852 5850 5850 5849 5848 5848 5847 5846 5846
5879 5878 5877 5877 5876 5874 5873 5872 5871 5870 5868 5868 5867 5865 5864 5863 5861 5859 5858 5857 5855 5853 5853 5852 5851 5850 5848 5847 5846 5844 5843 5842 5841 5841 5840 5839 5838 5838
5876 5875 5875 5874 5873 5872 5870 5869 5868 5867 5865 5864 5863 5861 5860 5858 5857 5855 5853 5851 5849 5848 5847 5846 5844 5843 5841 5840 5838 5837 5836 5835 5834 5833 5832 5831 5830 5829
5873 5872 5872 5871 5870 5869 5867 5866 5865 5863 5862 5860 5858 5857 5856 5854 5852 5850 5848 5846 5845 5843 5842 5840 5838 5837 5835 5833 5831 5830 5829 5827 5826 5825 5824 5823 5821 5821
5870 5869 5868 5867 5866 5865 5864 5862 5861 5859 5857 5856 5854 5852 5851 5849 5847 5845 5843 5841 5839 5837 5836 5834 5832 5830 5828 5826 5825 5823 5821 5819 5818 5817 5815 5814 5813 5812
5867 5865 5864 5863 5862 5861 5860 5858 5857 5855 5853 5852 5850 5848 5846 5843 5841 5839 5837 5835 5833 5831 5829 5827 5825 5823 5821 5818 5817 5814 5812 5811 5809 5808 5807 5805 5804 5803
5863 5862 5861 5859 5858 5857 5855 5854 5852 5850 5848 5847 5845 5842 5840 5838 5835 5833 5830 5828 5826 5824 5822 5820 5817 5815 5813 5810 5808 5806 5804 5802 5801 5799 5798 5796 5795 5794
5859 5858 5857 5855 5854 5852 5851 5849 5847 5845 5843 5841 5839 5836 5834 5831 5829 5826 5824 5821 5819 5816 5814 5812 5809 5807 5804 5802 5800 5797 5795 5793 5791 5790 5788 5787 5785 5784
5855 5854 5852 5851 5849 5847 5845 5843 5841 5839 5837 5835 5832 5830 5827 5824 5821 5819 5817 5814 5812 5809 5806 5804 5801 5799 5796 5793 5791 5788 5786 5784 5782 5780 5778 5776 5775 5773
5851 5849 5847 5846 5844 5842 5840 5838 5835 5833 5831 5828 5825 5823 5820 5817 5814 5812 5809 5806 5804 5801 5798 5796 5793 5790 5787 5784 5782 5779 5777 5775 5772 5770 5768 5766 5765 5763
5845 5844 5842 5840 5838 5836 5834 5831 5829 5827 5824 5821 5819 5816 5813 5810 5807 5804 5802 5799 5796 5793 5790 5787 5784 5781 5778 5775 5772 5769 5767 5764 5762 5760 5758 5756 5754 5752
5839 5838 5836 5834 5832 5830 5827 5825 5822 5820 5817 5814 5812 5809 5806 5803 5800 5797 5794 5791 5788 5785 5781 5778 5775 5772 5769 5766 5763 5759 5757 5754 5751 5749 5746 5744 5742 5740
5834 5832 5830 5828 5826 5823 5821 5818 5816 5813 5810 5807 5804 5801 5798 5796 5792 5789 5786 5783 5779 5776 5772 5769 5766 5762 5759 5756 5753 5749 5746 5743 5740 5737 5735 5732 5730 5728
5828 5826 5824 5821 5819 5817 5814 5811 5808 5806 5803 5800 5797 5794 5791 5787 5784 5781 5778 5774 5771 5767 5763 5760 5756 5753 5749 5746 5743 5739 5736 5733 5729 5726 5723 5721 5718 5715
5821 5819 5817 5815 5812 5810 5807 5804 5801 5798 5795 5792 5788 5785 5782 5779 5776 5773 5769 5766 5762 5759 5755 5751 5747 5744 5740 5737 5733 5729 5726 5722 5718 5715 5712 5709 5706 5703
5814 5812 5810 5808 5805 5802 5799 5796 5793 5790 5787 5783 5780 5777 5774 5771 5767 5764 5760 5757 5753 5750 5746 5742 5738 5734 5730 5727 5723 5719 5715 5711 5708 5704 5700 5697 5694 5691
5807 5805 5803 5800 5797 5795 5792 5789 5786 5782 5779 5776 5772 5769 5766 5762 5759 5755 5751 5748 5744 5740 5737 5733 5729 5725 5721 5717 5713 5709 5705 5701 5697 5693 5689 5686 5683 5679
5800 5798 5795 5792 5790 5787 5784 5781 5778 5775 5771 5768 5764 5761 5757 5754 5750 5746 5742 5738 5735 5731 5727 5723 5719 5715 5711 5707 5702 5698 5694 5690 5686 5682 5678 5674 5671 5668
5792 5790 5787 5785 5782 5779 5776 5773 5770 5767 5763 5760 5756 5752 5749 5745 5741 5737 5733 5729 5725 5721 5717 5713 5709 5705 5701 5697 5693 5688 5683 5679 5675 5671 5667 5664 5660 5656
5784 5782 5780 5777 5775 5772 5769 5765 5762 5759 5755 5751 5748 5744 5740 5736 5732 5728 5724 5720 5716 5712 5708 5704 5699 5695 5691 5687 5683 5678 5674 5669 5665 5661 5657 5653 5650 5646
5777 5775 5772 5770 5767 5764 5761 5757 5754 5750 5747 5743 5739 5735 5731 5727 5723 5719 5715 5711 5707 5703 5698 5694 5690 5686 5681 5677 5673 5669 5664 5660 5655 5650 5646 5643 5639 5635
5770 5768 5765 5762 5759 5755 5752 5749 5745 5742 5738 5734 5730 5727 5723 5719 5714 5710 5706 5702 5698 5693 5689 5685 5680 5676 5672 5667 5663 5659 5654 5650 5645 5641 5637 5633 5629 5626